Location: St. Louis
(38.6270°N, 90.1994°W)
Time: 01:50:29
(UTC-06:00)

Courier 1B Rocket - Pass Details

Date: 07 December 2021
Orbit: 920 x 1202 km, 28.2° (Epoch: 16 January)

Event Time Altitude Azimuth Distance (km) Brightness Sun altitude
Rises 01:06:10 0° 259° (W) 3,599 - -67.5°
Reaches altitude 10° 01:09:18 10° 246° (WSW) 2,628 - -67.1°
Maximum altitude 01:14:11 24° 195° (SSW) 1,798 - -66.3°
Drops below altitude 10° 01:19:03 10° 143° (SE) 2,603 - -65.5°
Sets 01:22:08 0° 130° (SE) 3,558 - -65.0°
